Regional Weather Roundup
Issued by NWS

Home | Current Version | Previous Version | Graphics & Text | Print | Product List | Glossary Off
Versions: 1 2 3 4 5 6 7 8 9 10 11 12 13 14 15 16 17 18 19 20 21 22 23 24 25 26 27 28 29 30 31 32 33 34 35 36 37 38 39 40 41 42 43 44 45 46 47 48 49 50

000
ASUS43 KMKX 171421
RWRWI

WISCONSIN REGIONAL WEATHER ROUNDUP
NATIONAL WEATHER SERVICE MILWAUKEE/SULLIVAN WI
800 AM CST WED DEC 17 2014

NOTE: "FAIR" INDICATES FEW OR NO CLOUDS BELOW 12,000 FEET WITH NO
SIGNIFICANT WEATHER AND/OR OBSTRUCTIONS TO VISIBILITY.

WIZ001-002-006>008-014>016-023>028-171500-
NORTHWEST WISCONSIN

CITY           SKY/WX    TMP DP  RH WIND       PRES   REMARKS
SUPERIOR ARPT  PTCLDY    14   8  77 NW6       30.28R WCI   5
ASHLAND        CLOUDY    14  12  92 W6        30.23R WCI   5
HAYWARD        LGT SNOW  13   8  81 W5        30.23R VSB 1   WCI   5
SIREN          CLEAR     11   8  89 NW5       30.27S WCI   3
CUMBERLAND     LGT SNOW  14   9  79 N7        30.23S WCI   4
RICE LAKE      FLURRIES  16  11  80 W7        30.25S WCI   6
CHETEK         FLURRIES  16  10  77 NW6       30.24S WCI   8
LADYSMITH      FLURRIES  16  12  82 NW8       30.23R WCI   6
EAU CLAIRE     CLOUDY    17  11  77 W9        30.24S WCI   6
MENOMONIE      CLOUDY    16  12  84 W10       30.26S WCI   4
NEW RICHMOND   LGT SNOW  11  10  93 W5        30.28S WCI   3
OSCEOLA        CLOUDY    11  10  92 W5        30.31S WCI   3
$$

WIZ003>005-009-010-017-018-171500-
NORTH CENTRAL WISCONSIN

CITY           SKY/WX    TMP DP  RH WIND       PRES   REMARKS
MANITOWISH WTR LGT SNOW  15  12  90 W9        30.12R WCI   3
ARBOR VITAE    FLURRIES  17  13  85 W8        30.12R WCI   6
WOODRUFF       FLURRIES  17  13  85 W8        30.12R WCI   6
RHINELANDER    FLURRIES  14   9  80 W8        30.12R WCI   3
EAGLE RIVER    LGT SNOW  16  14  90 NW8       30.10R WCI   5
LAND O LAKES   LGT SNOW  18  15  89 NW6       30.10R WCI  10
PHILLIPS       FLURRIES  13  10  84 W5        30.16S WCI   6
TOMAHAWK       LGT SNOW  15  11  85 CALM      30.16R
MEDFORD        FLURRIES  16  12  82 NW8       30.16S WCI   6
MERRILL        FLURRIES  16  11  83 N7        30.16S WCI   6
$$

WIZ029-030-035-036-043>047-171500-
CENTRAL WISCONSIN

CITY           SKY/WX    TMP DP  RH WIND       PRES   REMARKS
WAUSAU         CLOUDY    18  11  74 NW9       30.16R WCI   7
MOSINEE        FLURRIES  19  16  86 NW10      30.17S WCI   8
MARSHFIELD     CLOUDY    20  14  77 NW12      30.17S WCI   8
STEVENS POINT  CLOUDY    19  11  72 NW7       30.18S WCI  10
WAUPACA        FLURRIES  25  17  72 NW6       30.19S WCI  18
WAUTOMA        CLOUDY    23  17  78 W9        30.20S WCI  13
WISC RAPIDS    CLOUDY    21  13  71 W12       30.20S WCI   9
CAMP DOUGLAS   FLURRIES  21  19  93 NW9       30.22R WCI  11
$$

WIZ011>013-019>022-031-037>040-048>050-171500-
NORTHEAST WISCONSIN

CITY           SKY/WX    TMP DP  RH WIND       PRES   REMARKS
ANTIGO         FLURRIES  16  12  84 NW15      30.12R WCI   1
SHAWANO        CLOUDY    24  15  70 NW9       30.16S WCI  14
OCONTO         CLOUDY    23  17  78 W13       30.14R WCI  11
STURGEON BAY   MOCLDY    23  16  74 W15       30.12R WCI  10
GREEN BAY      FLURRIES  24  16  71 W14       30.16R WCI  12
MANITOWOC      CLEAR     24  17  74 NW12      30.15R WCI  13
APPLETON       CLOUDY    21  14  73 NW16      30.17R WCI   7
CLINTONVILLE   CLOUDY    23  14  68 NW12      30.17R WCI  12
OSHKOSH        CLOUDY    24  16  71 W17       30.17S WCI  11
$$

WIZ032>034-041-042-053>061-171500-
SOUTHWEST WISCONSIN

CITY           SKY/WX    TMP DP  RH WIND       PRES   REMARKS
LA CROSSE      CLOUDY    21  14  74 W10       30.27R WCI  10
SPARTA         CLOUDY    21  15  78 NW10      30.25S WCI   9
VIROQUA        CLOUDY    19  16  90 W12       30.22R WCI   6
BOSCOBEL       CLOUDY    23  15  71 NW5       30.27S WCI  17
PRAIRIE DU CHI CLOUDY    20  14  76 W9        30.29R WCI  10
PLATTEVILLE    CLOUDY    21  17  85 W14       30.25S WCI   8
$$

WIZ056-057-062-063-064-067-068-171500-
SOUTH CENTRAL WISCONSIN

CITY           SKY/WX    TMP DP  RH WIND       PRES   REMARKS
REEDSBURG      CLOUDY    21  15  78 W7        30.22S WCI  13
BARABOO/DELLS  CLOUDY    21  15  76 NW9       30.21S WCI  11
LONE ROCK      CLOUDY    26  14  60 NW10      30.25S WCI  16
MINERAL POINT  CLOUDY    23  18  80 NW8G16    30.22S WCI  14
MADISON        CLOUDY    23  15  71 NW8       30.21S WCI  14
MIDDLETON      CLOUDY    24  16  71 NW12      30.22S WCI  13
WATERTOWN      CLOUDY    23  17  78 NW12      30.20R WCI  12
MONROE         CLOUDY    23  19  86 W14       30.21S WCI  11
JANESVILLE     CLOUDY    27  18  69 W10       30.21S WCI  17
$$

WIZ051-052-058>065-066-070>072-171500-
SOUTHEAST WISCONSIN

CITY           SKY/WX    TMP DP  RH WIND       PRES   REMARKS
MILWAUKEE      CLOUDY    26  16  65 W15       30.19R WCI  14
WAUKESHA       CLOUDY    21  16  79 NW12G23   30.20R WCI   9
MILWAUKEE/TIMM CLOUDY    25  18  74 W13G21    30.19R WCI  13
RACINE         CLOUDY    26  16  65 W12       30.21R WCI  16
BURLINGTON     CLOUDY    24  17  74 W10       30.20S WCI  13
KENOSHA        CLOUDY    26  17  68 W14       30.19S WCI  14
FOND DU LAC    CLOUDY    24  15  68 NW15      30.18R WCI  11
SHEBOYGAN      LGT SNOW  24  18  77 W10       30.16R WCI  14
WEST BEND      CLOUDY    25  18  74 W14       30.17S WCI  13
JUNEAU         CLOUDY    22  17  78 W10G17    30.20R WCI  12
$$

LSZ147-162-171500-
LAKE SUPERIOR

STATION/POSITION TIME  TEMP    WIND        PRES    WAVE
                       AIR SEA DIR/SP/G            HT/PER
                 (UTC) (F)     (DEG/KT/KT) (MB)    (FT/S)
DEVILS ISLAND    1400   21     350/ 12/ 13 1024.5R
PORT WING        1340   19     340/ 11/ 15 1024.4R
SAXON HARBOR     1300   19     260/  5/  8 1022.7R
$$

LMZ867-665-643>646-171500-
LAKE MICHIGAN

STATION/POSITION TIME  TEMP    WIND        PRES    WAVE
                       AIR SEA DIR/SP/G            HT/PER
                 (UTC) (F)     (DEG/KT/KT) (MB)    (FT/S)
CHAMBERS ISLAND  1300   25     270/  8/ 13 1019.0R
NORTHPORT PIER   1300   26     290/ 13/ 21 1018.3R
SISTER BAY       1343          310/ 21/ 25   N/A
ALGOMA LAKESHORE 1314          320/  9/ 14   N/A
KEWAUNEE LAKESHO 1400   23     290/ 11/ 16 1019.3R
SHEBOYGAN LAKESH 1400   25 35  280/ 14/ 17 1022.4R
PORT WASHINGTON  1300   27     290/  8/ 12 1022.4R
MILWAUKEE LAKESH 1400   26     290/ 13/ 18   N/A
KENOSHA   LAKESH 1400   26     280/ 15/ 18 1022.4S
$$

TC  - TEMPERATURE IN CELSIUS
VSB - VISIBILITY IN STATUTE MILES
WCI - WIND CHILL INDEX
HX  - HEAT INDEX



USA.gov is the U.S. government's official web portal to all federal, state and local government web resources and services.